GFSGBSN_sfc_rhum_210.txt.gz
RH
58 63 64 56 59 64 66 66 68 71 74 73 78 80 80 75 77 82 86 85 85 83 86 91 87 88 65 43 30 17 53 48 19 14 14 11 11 10 11 8 7 7 6 6 5 5 6
56 57 64 67 57 56 60 66 67 71 72 72 75 78 82 83 83 83 86 87 85 84 84 93 88 88 68 53 18 14 16 15 13 11 10 10 9 8 9 8 7 6 6 7 6 6 6
60 56 57 64 69 65 57 63 64 65 72 74 74 76 79 86 83 85 86 88 86 85 86 83 91 69 66 42 17 13 16 17 13 13 14 9 8 9 9 11 8 7 8 9 8 6 7
66 66 59 58 67 68 65 66 65 65 70 71 74 76 77 82 86 85 88 89 88 87 86 86 92 74 71 24 23 21 18 17 15 14 14 13 11 12 12 9 9 10 10 13 7 6 5
59 64 66 58 61 64 66 66 68 69 70 75 76 77 78 80 88 87 88 90 88 86 86 86 94 81 62 30 29 22 20 23 20 17 15 12 13 16 13 13 14 13 13 10 8 5 4
58 60 64 66 65 63 59 60 68 73 75 76 76 78 78 79 86 88 90 89 79 82 69 72 79 80 56 34 20 18 21 20 23 19 18 17 17 18 15 12 17 12 11 9 8 5 5
61 57 64 66 65 63 59 57 68 74 75 77 78 79 82 80 81 89 87 67 63 58 61 84 74 67 28 35 15 20 18 21 22 24 26 20 22 19 15 13 10 9 7 6 5 5 6
64 60 59 58 66 66 59 58 68 73 73 76 81 83 86 82 81 88 79 70 35 45 51 60 58 62 41 32 28 19 17 26 26 31 25 23 25 15 11 10 10 11 11 8 6 5 7
65 62 60 64 68 68 63 63 66 72 75 76 81 84 85 87 82 90 87 63 37 35 61 45 71 66 49 36 40 23 20 22 23 29 27 26 20 14 13 12 12 12 12 11 9 7 6
65 64 62 60 68 70 70 68 66 70 75 79 83 85 86 88 93 65 83 54 40 56 83 46 54 62 55 42 44 23 21 22 22 25 25 24 16 15 15 14 12 15 8 9 10 10 12
67 66 66 62 60 63 65 68 68 72 72 76 82 84 87 90 64 64 54 50 51 79 85 23 27 31 44 61 33 32 20 22 26 24 21 26 20 18 17 14 13 13 9 9 10 11 13
68 68 67 66 62 60 63 67 69 70 71 75 81 81 84 94 85 51 47 53 84 100 92 24 23 33 50 51 47 30 28 24 22 22 20 18 14 15 15 12 11 11 11 11 13 14 20
69 68 65 63 64 64 60 66 70 70 72 77 81 83 83 79 84 60 73 90 100 97 31 26 35 41 46 48 48 43 36 37 36 38 32 19 16 13 13 15 14 13 18 23 23 24 24
67 70 68 62 63 64 65 68 73 74 78 79 82 82 79 74 75 64 92 99 99 71 40 14 15 42 56 41 46 43 41 41 31 27 24 23 26 17 14 15 16 17 18 26 30 26 16
66 70 65 63 64 64 67 66 74 76 77 80 82 75 91 82 81 89 98 99 91 52 34 26 14 21 42 43 40 50 47 40 28 29 31 22 20 12 14 12 13 18 20 16 24 21 23
67 63 61 64 64 65 63 66 73 76 77 80 95 93 87 76 82 96 100 96 98 38 22 24 28 19 39 38 48 55 51 36 29 24 25 23 23 13 12 12 14 17 13 25 25 39 37
67 62 62 65 65 65 66 67 71 75 77 81 98 99 81 74 90 99 99 99 64 38 25 24 28 22 19 45 44 43 57 44 29 24 23 25 28 21 13 16 16 20 21 21 21 25 35
67 64 65 66 64 67 69 68 70 73 78 83 99 100 88 83 100 100 100 94 63 40 34 31 24 24 26 23 43 57 57 44 32 26 30 27 32 35 21 12 12 16 21 21 32 32 26
67 66 67 67 68 69 72 73 73 74 73 98 100 100 93 90 100 99 99 83 64 47 40 40 39 37 31 27 36 29 38 46 50 36 31 31 41 47 35 22 15 18 20 19 20 24 30
67 66 68 68 70 70 74 76 70 69 72 97 100 100 99 100 90 87 100 99 93 56 49 37 36 33 47 55 42 57 51 40 41 51 56 38 38 42 44 31 22 25 19 18 20 35 33
66 68 68 69 70 71 73 72 66 67 71 97 100 100 96 100 100 96 86 84 85 83 55 47 53 38 50 67 63 70 67 58 50 50 55 57 50 38 30 25 22 20 21 20 22 22 33
69 68 70 71 72 73 76 73 69 69 71 99 100 100 77 95 88 99 94 91 79 66 59 69 66 56 40 53 51 56 50 51 51 37 56 53 71 52 43 27 25 24 18 19 20 20 19
70 68 68 71 74 72 73 68 69 70 77 100 98 89 95 80 75 98 92 91 71 61 60 50 53 57 54 48 40 39 42 44 53 66 74 95 96 73 75 37 33 43 30 20 21 18 20
68 68 73 73 74 71 70 71 75 74 78 98 97 98 100 96 88 81 86 73 70 62 67 53 47 52 41 33 36 43 42 45 50 57 62 96 96 95 90 56 74 38 21 20 22 19 18
70 72 74 74 72 72 73 74 77 81 78 96 96 99 100 98 77 63 60 90 72 60 67 59 50 45 44 44 64 77 76 70 62 54 64 72 88 100 99 80 49 35 28 28 28 27 21
73 72 78 75 74 75 77 80 82 83 78 92 96 95 99 100 95 61 60 56 88 85 74 62 46 45 52 77 81 98 85 80 61 45 42 54 66 96 100 94 83 49 28 22 24 43 20
71 74 79 76 76 77 78 80 84 83 77 85 97 97 98 100 75 70 94 97 69 72 91 65 58 66 60 84 99 98 87 52 69 58 56 74 92 98 96 96 56 29 27 19 46 42 25
72 76 80 78 77 77 79 83 83 82 79 74 93 98 100 100 83 77 78 94 96 97 100 67 79 85 91 97 95 86 98 64 60 51 51 66 82 97 93 99 85 27 23 32 32 29 28
70 72 76 80 79 81 80 81 81 81 80 72 91 82 95 99 98 86 80 78 77 87 89 83 64 53 76 85 93 84 82 87 63 71 46 73 70 84 72 74 42 29 27 23 26 38 32

GFSGBSN_sfc_rhum_216.txt.gz
RH
65 64 65 62 60 62 66 66 63 64 64 65 67 70 72 71 70 72 83 89 89 90 88 83 80 87 90 89 67 36 62 44 36 26 25 25 27 26 28 22 19 20 16 13 12 11 10
60 60 64 66 67 61 64 64 64 64 64 64 69 71 73 72 72 73 80 87 90 90 90 86 81 87 91 96 38 34 44 42 29 31 26 26 24 21 21 22 22 16 14 14 14 12 11
60 61 58 63 66 69 67 65 64 63 62 65 69 75 76 74 74 76 77 85 90 90 91 85 81 67 94 80 47 50 47 42 40 39 36 23 22 24 22 21 19 18 19 16 15 14 14
56 60 61 59 64 68 69 67 66 63 61 65 71 73 80 80 81 84 84 86 91 89 89 86 82 76 94 58 59 55 50 40 31 28 29 24 24 26 26 21 20 23 26 23 16 13 13
57 62 62 60 61 61 65 67 67 63 61 67 71 73 79 82 83 84 86 86 90 87 86 88 92 93 86 60 71 55 48 49 34 28 29 21 30 30 29 30 30 33 30 25 20 14 14
59 61 61 62 60 59 61 66 67 69 67 68 68 70 77 82 85 87 88 88 87 88 83 80 80 88 68 76 54 44 40 36 32 32 36 37 37 37 38 36 28 31 28 31 24 18 18
64 62 62 62 62 59 58 67 70 69 69 67 68 72 76 81 85 87 92 96 92 93 95 84 71 68 50 54 44 49 30 33 37 36 50 44 50 47 33 34 30 28 25 24 25 16 19
66 64 63 63 63 63 59 59 67 68 67 68 70 73 73 78 84 87 95 90 74 82 95 79 62 69 49 45 71 57 38 35 46 51 42 49 53 38 30 29 31 30 31 28 22 16 16
66 66 64 64 64 63 67 61 61 62 65 67 71 72 73 79 82 93 90 78 62 80 94 70 72 64 49 38 65 64 51 35 41 51 48 52 42 33 29 29 30 29 29 26 22 18 17
67 66 65 66 65 66 63 65 65 61 62 67 70 72 80 82 89 93 89 73 75 89 99 69 64 64 43 34 57 49 45 51 38 40 47 48 36 36 32 31 28 33 22 21 20 23 24
67 65 66 66 68 68 63 64 64 64 66 70 71 72 79 79 97 89 72 76 85 93 98 40 42 44 42 42 37 44 47 52 53 42 40 42 38 40 40 31 25 30 24 22 21 22 27
68 68 67 67 70 69 64 64 64 66 67 65 70 72 77 87 97 82 71 86 90 98 93 39 35 76 68 50 32 48 49 48 46 55 39 36 29 30 34 30 25 22 25 24 25 29 38
69 70 66 67 64 62 65 65 63 62 63 65 72 72 77 87 89 81 93 100 98 98 41 41 41 68 68 70 56 43 60 63 67 74 57 40 39 30 27 33 27 27 30 41 40 42 34
69 68 66 65 63 63 66 61 62 60 66 68 77 79 79 77 87 87 94 100 98 74 53 30 31 52 76 64 74 49 44 66 62 52 53 57 59 39 29 31 33 32 30 51 52 46 30
64 66 71 67 65 64 65 60 64 71 75 77 78 89 95 83 90 96 99 99 95 74 52 41 35 41 74 64 70 75 60 50 58 50 60 55 53 31 27 26 26 33 34 25 38 41 43
69 71 70 68 67 64 65 66 67 72 76 77 97 92 86 85 94 98 100 98 92 68 49 40 52 41 44 67 66 73 80 58 49 50 42 48 60 34 27 24 24 27 24 40 44 50 48
69 68 70 69 66 63 65 67 69 74 72 76 100 99 79 92 96 99 98 90 74 56 54 70 51 50 35 45 61 66 88 66 57 48 55 53 56 53 39 33 32 28 31 30 32 39 44
66 64 63 65 64 63 64 69 69 74 72 80 99 99 90 95 100 100 95 94 65 59 58 63 58 60 46 36 41 48 45 54 52 56 64 53 60 65 54 38 29 26 24 28 41 40 41
69 66 65 66 63 63 67 70 73 76 66 97 100 99 91 99 100 98 90 82 74 66 71 68 69 62 60 63 63 47 39 33 46 68 78 58 77 84 65 46 36 39 34 31 32 33 38
65 64 64 70 64 64 69 72 74 75 62 95 100 97 96 98 100 100 100 93 78 64 69 70 71 65 72 72 64 71 64 53 54 54 72 75 87 86 74 56 46 45 33 30 34 47 39
67 66 64 66 64 72 73 74 75 70 63 93 99 91 93 98 97 99 100 99 86 83 68 71 90 73 78 87 75 73 56 55 58 71 80 78 97 97 93 86 82 75 76 66 36 34 44
68 67 65 68 74 74 76 71 72 69 66 95 98 97 92 98 89 93 92 97 95 96 88 79 85 76 80 84 77 74 64 61 64 63 69 84 97 97 100 94 94 97 71 73 74 55 31
67 68 61 72 75 74 70 71 72 72 70 96 95 94 99 84 86 89 86 78 76 85 77 78 78 80 86 74 62 62 65 62 73 75 78 74 84 92 90 61 67 87 72 63 67 60 49
60 65 61 70 69 76 72 74 76 76 78 95 92 93 99 92 85 90 71 66 70 73 82 70 69 81 66 56 62 63 64 69 72 73 77 77 80 91 86 84 95 56 54 49 55 54 53
66 69 64 69 73 79 75 74 75 75 75 99 97 99 99 94 82 76 74 76 69 70 78 74 66 64 58 70 92 97 88 86 68 64 73 73 79 91 95 80 60 50 50 50 63 58 42
67 66 65 62 73 75 79 75 74 74 74 94 98 98 98 99 87 78 96 97 93 86 84 79 61 56 77 91 99 97 90 76 76 81 59 69 71 89 98 97 82 48 36 32 36 58 36
68 66 64 64 70 74 76 78 78 75 73 90 97 95 99 98 78 86 98 92 94 98 99 94 82 84 81 96 98 97 91 66 78 73 75 86 82 95 86 96 78 42 36 35 62 57 30
72 68 68 68 67 70 75 73 75 77 74 87 80 95 96 94 80 75 78 95 96 97 98 87 95 95 98 99 99 98 98 96 97 76 60 66 86 92 88 90 90 47 44 55 44 35 29
73 72 71 70 69 67 70 73 72 74 70 75 88 93 98 99 86 76 78 81 86 86 99 98 98 99 99 99 99 98 99 99 92 91 68 82 73 72 72 78 62 46 44 36 36 35 34

GFSGBSN_sfc_rhum_222.txt.gz
RH
60 61 60 60 64 65 67 68 68 68 66 65 64 70 70 70 71 73 75 76 78 78 78 84 80 80 90 91 80 41 67 58 38 36 40 33 32 30 32 30 30 28 25 21 18 18 19
57 60 62 60 61 64 65 67 68 68 68 65 64 68 70 71 73 75 76 78 80 81 80 84 81 82 93 91 50 48 58 58 45 44 42 40 36 33 33 32 28 26 22 21 20 18 20
59 58 63 64 63 63 63 63 64 67 69 67 67 68 69 71 74 76 78 80 82 82 80 81 82 82 90 77 47 39 46 54 61 51 47 39 38 39 36 34 26 24 25 23 22 20 17
59 58 61 62 64 63 62 62 68 69 72 70 69 69 70 73 76 77 80 83 84 83 81 80 83 94 85 49 55 53 54 66 55 50 41 36 37 43 38 33 28 31 31 31 23 18 16
64 63 62 63 63 64 63 61 62 69 69 69 69 69 71 77 78 80 81 83 82 76 80 80 97 96 86 52 74 67 60 61 49 50 53 39 38 43 41 39 43 39 42 33 22 19 21
66 65 64 63 62 64 63 63 63 63 65 67 68 68 69 72 78 80 84 82 79 81 85 86 86 89 72 44 62 68 66 64 68 56 46 41 46 53 50 43 38 42 41 46 29 23 24
66 65 64 63 62 62 63 64 66 67 66 64 63 64 67 69 72 79 87 97 79 86 93 86 78 72 46 47 37 55 41 64 61 57 57 50 61 59 50 42 39 30 33 30 32 22 25
63 66 65 63 62 64 64 64 64 65 65 66 64 65 71 71 73 76 94 98 80 84 95 77 68 70 61 59 66 42 44 66 70 74 46 53 53 35 43 43 39 37 38 38 34 27 27
67 68 67 64 64 64 66 66 66 64 65 65 66 71 69 72 75 90 99 93 79 80 92 74 76 81 73 65 73 58 37 65 62 72 55 46 29 35 42 46 45 41 40 38 35 31 28
68 68 67 66 65 66 68 65 64 64 65 63 66 66 72 77 82 94 90 82 81 91 96 70 78 72 70 60 68 43 36 65 64 67 59 49 29 37 37 44 41 50 36 35 35 37 39
64 70 69 68 66 67 65 64 65 68 67 58 63 63 71 69 92 96 78 85 89 98 99 43 61 52 59 56 39 47 35 64 78 64 47 52 43 38 42 46 38 45 33 37 33 35 38
66 69 70 68 67 67 66 65 66 66 60 61 65 67 71 87 94 85 89 89 92 100 92 48 53 80 72 62 53 38 41 58 48 68 66 71 52 39 38 37 39 36 37 35 36 38 45
66 64 68 67 70 68 67 65 66 65 65 68 71 72 78 92 80 87 91 96 96 98 50 46 59 77 72 72 65 51 82 77 68 89 85 70 67 58 43 51 43 43 42 60 58 55 50
70 67 69 68 69 71 68 64 66 67 68 71 77 80 84 85 93 91 96 96 98 64 73 46 42 45 81 70 73 61 57 83 76 63 81 73 74 56 48 46 54 49 48 65 58 48 41
60 67 69 68 70 69 67 59 62 66 75 77 78 96 97 85 89 95 97 99 89 81 70 85 58 50 54 79 72 72 65 53 66 65 66 78 77 44 41 37 36 44 55 41 56 53 57
65 67 66 64 64 65 66 58 63 68 73 74 98 93 86 93 91 94 97 84 89 76 62 81 95 51 56 58 71 88 80 77 58 48 57 68 74 52 43 38 35 38 34 49 54 75 64
65 67 69 68 66 69 60 58 64 69 73 72 95 96 82 97 94 98 99 84 80 56 58 71 84 88 90 78 60 59 74 74 63 76 51 68 81 66 62 56 52 50 48 48 45 50 61
61 66 64 65 64 69 58 63 67 72 76 82 96 98 86 97 100 100 99 73 59 56 62 68 81 81 83 76 82 73 59 55 66 62 70 57 77 90 69 47 51 43 46 44 60 62 57
61 64 64 61 65 64 59 67 74 78 72 96 97 95 90 98 99 99 96 96 73 68 67 72 82 79 75 84 82 74 76 58 68 69 72 76 94 95 76 66 56 66 54 48 42 44 56
63 63 64 63 62 65 71 74 76 72 69 94 99 98 95 96 100 99 97 88 92 71 82 76 71 72 77 77 73 87 82 64 58 57 64 77 87 80 85 81 86 82 65 57 56 65 55
70 66 65 62 61 65 74 74 72 72 70 91 99 95 88 98 96 100 98 91 91 89 81 77 97 82 82 93 82 78 67 72 61 59 63 84 100 95 84 71 77 89 76 78 89 61 74
69 66 66 64 65 64 72 75 72 74 70 89 96 97 92 91 90 95 84 90 86 79 75 83 86 79 88 99 98 98 91 83 78 70 68 72 99 96 95 81 85 87 81 84 87 76 70
67 68 66 64 66 65 71 76 74 75 74 95 92 89 91 85 92 95 90 81 81 75 70 69 72 87 90 80 73 84 90 91 91 87 88 90 89 94 86 75 88 98 85 75 97 97 84
70 66 66 67 68 65 67 75 76 75 82 94 93 95 100 96 96 92 73 70 73 71 81 70 74 87 71 52 67 72 73 74 74 81 83 88 89 85 88 83 96 59 46 52 61 58 76
73 68 66 66 69 68 60 72 77 75 76 96 93 96 100 98 90 82 78 75 72 71 84 80 65 65 68 78 98 97 94 88 91 76 79 84 86 92 93 83 60 60 57 71 72 74 60
74 73 70 67 69 69 63 66 74 76 76 96 89 93 98 99 91 72 86 81 94 88 83 86 67 55 77 99 99 97 98 84 84 69 74 80 82 88 100 90 85 48 40 36 51 70 48
73 72 72 67 68 71 66 64 64 71 75 91 90 93 97 99 82 78 87 91 84 95 95 77 80 84 85 93 98 98 94 75 85 69 84 93 94 95 92 92 78 52 41 41 74 57 34
74 73 72 73 70 71 72 69 64 68 70 87 93 95 98 99 84 72 69 83 87 87 94 80 85 92 96 98 99 97 99 86 82 59 61 70 95 96 93 97 93 51 47 54 41 34 33
70 72 75 75 75 73 72 72 69 68 61 69 97 93 94 99 94 81 80 75 76 77 89 88 84 86 91 98 96 98 98 97 97 93 65 83 63 84 81 78 61 47 45 41 36 37 35

GFSGBSN_sfc_rhum_228.txt.gz
RH
58 62 62 63 62 61 60 61 66 67 69 69 68 68 67 67 67 68 69 71 74 76 76 74 75 77 54 33 20 36 56 44 27 31 26 22 15 12 12 9 9 13 8 8 8 9 9
59 59 63 62 63 62 62 62 65 67 67 69 69 69 69 69 68 67 68 70 73 74 74 72 72 78 52 44 14 20 25 24 22 30 30 24 18 16 14 12 12 10 9 8 8 9 9
59 61 63 64 63 63 64 64 62 64 65 67 67 68 68 67 68 69 69 71 73 74 73 71 70 61 63 42 22 21 23 24 24 28 32 26 22 23 16 17 14 12 13 10 10 10 9
66 64 62 62 62 63 65 66 68 66 66 66 65 65 65 67 71 71 72 76 77 74 73 71 71 59 53 27 26 28 20 19 16 17 28 26 26 26 26 18 19 16 13 11 7 8 9
63 64 64 63 63 61 64 66 65 65 66 66 66 65 66 72 73 75 78 81 80 74 75 70 58 56 37 35 28 23 28 27 21 18 27 27 28 25 26 26 16 17 10 12 7 8 7
64 63 61 62 60 63 63 63 66 66 66 65 65 65 70 69 73 76 82 76 68 64 48 54 53 60 34 29 28 26 21 42 40 27 36 38 33 28 24 20 17 13 14 10 9 7 9
58 63 62 61 60 62 62 63 67 67 64 64 64 67 66 67 68 75 62 42 42 41 51 54 40 36 31 23 23 29 23 35 45 35 26 30 34 33 20 20 15 10 10 13 8 8 12
65 64 64 61 62 63 62 62 64 64 66 68 64 60 63 65 68 76 53 60 70 79 90 43 38 36 30 27 40 26 25 39 44 36 22 25 36 22 20 19 21 20 15 14 11 11 15
61 66 64 64 62 63 63 63 64 65 67 62 63 60 64 69 71 56 57 55 44 58 70 46 36 35 35 33 36 29 28 31 40 40 20 21 23 21 23 26 28 27 23 18 14 14 14
64 65 67 64 64 64 64 65 64 64 65 64 65 67 75 78 62 54 50 46 49 62 71 29 28 36 40 41 43 26 22 27 40 43 33 22 15 16 22 25 26 34 21 22 23 22 23
62 63 63 68 67 68 67 67 65 64 64 65 69 71 74 73 62 54 46 48 54 73 75 23 30 37 41 48 36 31 26 24 29 42 40 32 22 21 22 23 20 25 23 24 28 29 27
63 68 62 64 66 66 68 68 64 61 64 66 70 70 74 62 60 49 43 57 68 94 64 31 30 32 32 26 41 30 33 28 17 18 26 32 24 32 21 19 19 19 24 28 31 30 39
63 70 68 68 72 72 71 66 64 61 65 68 71 74 66 54 57 54 59 62 86 90 26 32 41 34 32 29 27 43 28 33 24 24 20 15 24 26 33 34 20 22 30 37 38 41 35
58 59 61 67 65 64 64 64 59 61 66 70 76 77 65 63 64 66 66 66 52 37 32 28 37 31 34 33 44 49 34 29 27 20 18 15 19 14 23 32 26 25 24 32 36 28 24
58 61 64 69 62 65 70 64 60 62 68 73 76 55 64 77 80 70 62 99 70 37 37 43 30 36 38 30 32 36 63 87 28 25 34 26 24 12 20 21 26 28 29 18 30 24 25
60 62 65 65 66 64 70 59 62 67 71 74 51 54 63 89 79 66 79 87 54 37 36 35 46 35 45 36 33 36 34 87 63 49 37 30 35 21 25 26 24 28 18 35 34 46 40
58 57 61 61 61 64 67 60 64 71 76 68 56 61 72 79 67 69 100 92 54 40 40 44 44 46 38 38 33 37 34 29 46 73 58 40 44 31 21 30 29 29 32 28 29 33 39
57 58 57 61 63 63 65 65 73 76 74 58 62 98 74 88 94 98 100 74 66 47 41 50 47 47 47 46 46 41 41 36 35 64 93 78 62 45 32 23 21 28 52 32 43 38 33
63 60 61 57 57 57 62 67 75 71 65 50 92 90 66 90 97 100 78 62 47 52 59 59 58 50 51 62 72 45 44 36 39 46 63 73 91 72 40 29 26 36 34 60 53 43 44
65 65 61 58 58 58 62 66 73 70 70 52 86 100 79 76 91 96 91 65 58 40 43 57 74 55 63 62 56 69 50 41 42 44 60 69 66 66 63 65 45 54 36 31 53 99 72
67 67 69 58 57 60 64 66 73 71 73 50 91 89 64 98 100 92 73 60 56 55 39 44 49 66 63 78 61 57 74 57 46 51 51 65 95 69 57 42 31 38 50 46 52 75 96
73 68 69 63 59 60 64 66 74 73 72 51 95 87 69 69 54 65 73 80 53 48 58 55 54 42 48 65 57 72 55 54 69 58 65 54 82 70 92 51 48 59 42 49 46 42 44
70 71 67 66 65 62 63 66 72 73 65 66 62 55 65 66 60 71 70 50 43 47 47 42 45 53 54 44 41 47 54 62 71 70 71 78 64 67 81 41 45 81 66 37 33 30 34
72 70 71 68 67 66 66 65 69 75 73 54 52 55 81 85 62 60 49 46 48 47 55 45 44 51 40 38 43 51 50 54 58 60 52 67 66 71 86 59 92 37 20 20 26 24 24
73 72 70 70 70 68 69 67 61 67 77 66 63 69 85 91 56 51 49 51 48 47 51 49 44 41 45 54 82 74 68 64 57 49 53 52 61 89 91 68 45 32 26 26 31 28 22
73 73 71 71 72 71 71 70 64 64 70 92 67 63 68 92 76 50 52 49 62 63 59 53 45 41 53 68 79 86 72 51 47 37 44 48 60 84 85 87 73 35 20 18 22 42 23
72 71 73 73 73 75 74 71 70 64 63 82 96 85 87 97 57 58 73 67 52 63 78 55 51 54 49 71 82 74 61 35 60 45 42 70 79 90 78 84 54 28 24 24 54 40 21
72 69 71 72 75 75 76 70 71 70 65 72 80 92 98 99 63 57 56 72 69 68 87 54 68 73 75 94 86 93 86 85 82 60 69 58 72 76 79 89 87 38 31 51 52 62 48
77 78 76 73 75 76 76 74 71 72 73 69 88 79 94 99 76 57 57 56 58 60 76 67 69 54 57 80 74 72 77 69 62 73 38 76 56 68 60 50 38 38 43 38 36 45 50